Three Rivers, MI

2:47 PM EDT on May 27, 2017 (GMT -0400)
Three Rivers Municipal-Haines

Weather History for KHAI - August, 2014

Change the Weather History Date:

Sunday, August 3, 2014

  Actual Average Record
Temperature  
Mean Temperature 70 °F -  
Max Temperature 85 °F 83 °F 98 °F (1964)
Min Temperature 54 °F 58 °F 40 °F (1965)
Cooling Degree Days 4    
Growing Degree Days 20 (Base 50)    
Moisture  
Dew Point 60 °F    
Average Humidity 70    
Maximum Humidity 99    
Minimum Humidity 39    
Precipitation  
Precipitation 0.00 in - - ()
Sea Level Pressure  
Sea Level Pressure 30.13 in    
Wind  
Wind Speed 2 mph (NW)    
Max Wind Speed 9 mph    
Max Gust Speed -    
Visibility 9 miles    
Events      
Averages and records for this station are not official NWS values.
T = Trace of Precipitation, MM = Missing Value Source: NWS Daily Summary

Daily Weather History Graph

Daily Weather History Graph

Search for Another Location

Airport or City:

Trip Planner

Search our weather history database for the weather conditions in past years. The results will help you decide how hot, cold, wet, or windy it might be!

Date:

Astronomy

Aug. 03, 2014 Rise Set
Actual Time 6:37 AM EDT 8:58 PM EDT
Civil Twilight 6:06 AM EDT 9:29 PM EDT
Nautical Twilight 5:27 AM EDT 10:08 PM EDT
Astronomical Twilight 4:44 AM EDT 10:51 PM EDT
Moon 2:06 PM EDT (8/3) 12:10 AM EDT (8/3)
Length of Visible Light 15h 23m
Length of Day
14h 20m
Waxing Crescent, 46% of the Moon is Illuminated
Aug 3
Waxing Crescent
Aug 3
First Quarter
Aug 10
Full
Aug 17
Last Quarter
Aug 25
New

Hourly Weather History & Observations

Time (EDT) Temp. Heat Index Dew Point Humidity Pressure Visibility Wind Dir Wind Speed Gust Speed Precip Events Conditions
12:35 AM 63.0 °F - 58.3 °F 85% 30.13 in 10.0 mi Calm Calm - N/A   Clear
12:54 AM 61.2 °F - 58.3 °F 90% 30.13 in 10.0 mi Calm Calm - N/A   Clear
1:15 AM 60.8 °F - 57.6 °F 89% 30.13 in 10.0 mi Calm Calm - N/A   Clear
1:35 AM 60.1 °F - 57.2 °F 90% 30.13 in 10.0 mi Calm Calm - N/A   Clear
1:54 AM 60.8 °F - 57.6 °F 89% 30.13 in 10.0 mi Calm Calm - N/A   Clear
2:34 AM 58.6 °F - 56.5 °F 93% 30.14 in 10.0 mi Calm Calm - N/A   Clear
2:55 AM 58.3 °F - 56.5 °F 94% 30.13 in 7.0 mi Calm Calm - N/A   Clear
3:15 AM 57.7 °F - 56.3 °F 95% 30.13 in 7.0 mi Calm Calm - N/A   Clear
3:34 AM 57.9 °F - 56.7 °F 96% 30.14 in 7.0 mi Calm Calm - N/A   Clear
4:15 AM 57.2 °F - 56.5 °F 97% 30.14 in 7.0 mi Calm Calm - N/A   Clear
4:55 AM 57.2 °F - 56.1 °F 96% 30.14 in 7.0 mi Calm Calm - N/A   Clear
5:15 AM 56.1 °F - 55.2 °F 97% 30.14 in 4.0 mi Calm Calm - N/A   Clear
5:34 AM 55.4 °F - 54.7 °F 97% 30.14 in 5.0 mi Calm Calm - N/A   Clear
5:55 AM 54.7 °F - 53.8 °F 97% 30.15 in 7.0 mi WNW 5.8 mph - N/A   Clear
6:15 AM 55.2 °F - 54.7 °F 98% 30.15 in 5.0 mi Calm Calm - N/A   Clear
6:34 AM 55.4 °F - 54.7 °F 97% 30.15 in 5.0 mi Calm Calm - N/A   Clear
6:55 AM 55.2 °F - 54.5 °F 97% 30.15 in 4.0 mi Calm Calm - N/A   Clear
7:15 AM 54.9 °F - 54.5 °F 99% 30.15 in 4.0 mi Calm Calm - N/A   Clear
7:34 AM 57.0 °F - 56.3 °F 97% 30.16 in 5.0 mi Calm Calm - N/A   Clear
7:55 AM 57.7 °F - 56.8 °F 97% 30.15 in 5.0 mi Calm Calm - N/A   Clear
8:14 AM 59.5 °F - 58.3 °F 96% 30.16 in 7.0 mi Calm Calm - N/A   Clear
8:35 AM 63.7 °F - 59.0 °F 85% 30.16 in 7.0 mi Calm Calm - N/A   Clear
8:55 AM 65.7 °F - 59.7 °F 81% 30.16 in 10.0 mi NW 3.5 mph - N/A   Clear
9:14 AM 66.7 °F - 58.5 °F 75% 30.17 in 10.0 mi NW 3.5 mph - N/A   Clear
9:35 AM 68.2 °F - 59.5 °F 74% 30.17 in 10.0 mi Calm Calm - N/A   Clear
9:55 AM 70.3 °F - 59.9 °F 69% 30.17 in 10.0 mi Calm Calm - N/A   Clear
10:14 AM 70.9 °F - 60.8 °F 70% 30.17 in 10.0 mi Calm Calm - N/A   Clear
10:35 AM 74.3 °F - 60.4 °F 62% 30.17 in 10.0 mi WNW 4.6 mph - N/A   Clear
10:55 AM 75.2 °F - 60.4 °F 60% 30.17 in 10.0 mi WNW 5.8 mph - N/A   Clear
11:14 AM 75.4 °F - 60.6 °F 60% 30.17 in 10.0 mi NNW 5.8 mph - N/A   Clear
11:35 AM 77.0 °F - 61.5 °F 59% 30.17 in 10.0 mi NW 4.6 mph - N/A   Clear
11:55 AM 78.8 °F - 61.0 °F 54% 30.16 in 10.0 mi NW 4.6 mph - N/A   Clear
12:14 PM 79.3 °F - 59.5 °F 51% 30.16 in 10.0 mi NW 5.8 mph - N/A   Clear
12:35 PM 80.4 °F 81.1 °F 59.7 °F 49% 30.16 in 10.0 mi NW 5.8 mph - N/A   Clear
12:55 PM 81.7 °F 82.3 °F 60.6 °F 49% 30.16 in 10.0 mi NNW 6.9 mph - N/A   Clear
1:14 PM 81.7 °F 82.3 °F 60.8 °F 49% 30.15 in 10.0 mi NNW 6.9 mph - N/A   Clear
1:35 PM 82.2 °F 82.9 °F 61.5 °F 49% 30.15 in 10.0 mi NW 9.2 mph - N/A   Scattered Clouds
1:55 PM 82.6 °F 82.9 °F 60.4 °F 47% 30.14 in 10.0 mi NW 5.8 mph - N/A   Scattered Clouds
2:14 PM 81.9 °F 82.5 °F 61.2 °F 49% 30.14 in 10.0 mi NNW 6.9 mph - N/A   Scattered Clouds
2:35 PM 82.9 °F 83.0 °F 59.4 °F 45% 30.13 in 10.0 mi North 5.8 mph - N/A   Mostly Cloudy
3:14 PM 84.2 °F 83.8 °F 58.8 °F 42% 30.12 in 10.0 mi WNW 6.9 mph - N/A   Scattered Clouds
3:35 PM 84.7 °F 84.2 °F 58.3 °F 41% 30.11 in 10.0 mi North 4.6 mph - N/A   Scattered Clouds
3:54 PM 83.7 °F 83.1 °F 57.7 °F 41% 30.10 in 10.0 mi NNW 6.9 mph - N/A   Scattered Clouds
4:15 PM 85.1 °F 84.3 °F 57.7 °F 39% 30.10 in 10.0 mi WNW 4.6 mph - N/A   Scattered Clouds
4:35 PM 82.6 °F 82.6 °F 59.0 °F 45% 30.10 in 10.0 mi Calm Calm - N/A   Scattered Clouds
4:54 PM 84.0 °F 83.8 °F 59.5 °F 43% 30.09 in 10.0 mi North 5.8 mph - N/A   Scattered Clouds
5:15 PM 82.2 °F 82.4 °F 59.5 °F 46% 30.09 in 10.0 mi North 3.5 mph - N/A   Scattered Clouds
5:35 PM 83.5 °F 83.2 °F 59.0 °F 43% 30.09 in 10.0 mi NNW 5.8 mph - N/A   Scattered Clouds
5:54 PM 84.4 °F 84.0 °F 58.8 °F 42% 30.08 in 10.0 mi NW 6.9 mph - N/A   Scattered Clouds
6:15 PM 83.3 °F 83.1 °F 58.8 °F 43% 30.08 in 10.0 mi NW 4.6 mph - N/A   Clear
6:35 PM 82.6 °F 82.8 °F 60.1 °F 46% 30.08 in 10.0 mi NW 4.6 mph - N/A   Clear
6:54 PM 81.9 °F 82.3 °F 60.4 °F 48% 30.08 in 10.0 mi Calm Calm - N/A   Clear
7:15 PM 81.3 °F 82.2 °F 61.7 °F 51% 30.09 in 10.0 mi West 4.6 mph - N/A   Clear
7:34 PM 82.0 °F 82.8 °F 61.5 °F 50% 30.08 in 10.0 mi West 3.5 mph - N/A   Scattered Clouds
7:55 PM 79.7 °F - 63.0 °F 56% 30.08 in 10.0 mi Calm Calm - N/A   Clear
8:15 PM 78.6 °F - 63.9 °F 60% 30.09 in 10.0 mi Calm Calm - N/A   Scattered Clouds
8:34 PM 77.2 °F - 64.4 °F 65% 30.08 in 10.0 mi Calm Calm - N/A   Scattered Clouds
8:55 PM 75.2 °F - 65.3 °F 71% 30.09 in 10.0 mi Calm Calm - N/A   Scattered Clouds
9:15 PM 74.7 °F - 64.8 °F 71% 30.10 in 10.0 mi Calm Calm - N/A   Clear
9:34 PM 74.5 °F - 65.8 °F 74% 30.10 in 10.0 mi Calm Calm - N/A   Scattered Clouds
10:15 PM 71.6 °F - 64.9 °F 79% 30.10 in 10.0 mi Calm Calm - N/A   Clear
10:35 PM 70.0 °F - 64.8 °F 83% 30.10 in 10.0 mi Calm Calm - N/A   Clear
10:54 PM 69.8 °F - 64.8 °F 84% 30.10 in 10.0 mi Calm Calm - N/A   Clear
11:14 PM 68.9 °F - 64.2 °F 85% 30.10 in 10.0 mi Calm Calm - N/A   Clear
11:35 PM 67.3 °F - 64.0 °F 89% 30.10 in 7.0 mi Calm Calm - N/A   Clear
11:55 PM 66.4 °F - 64.2 °F 93% 30.10 in 7.0 mi Calm Calm - N/A   Clear